[[{"header":{"parameterUnit":"m.s-1","parameterCategory":1,"la1":30.2992,"la2":30.254,"lo1":-89.0895,"lo2":-89.0443,"dy":0.0025,"dx":0.0025,"nx":19,"ny":19,"refTime":"2026-04-20T09:00:00:Z","depth":0,"parameterNumber":2,"parameterNumberName":"U-component_of_WINDS"},"data":[0,0,0,-5.2015,-5.2016,-5.2045,-5.2045,-5.212,-5.2121,0,0,0,0,0,0,0,0,0,0,0,-5.2028,-5.2029,-5.2015,-5.2016,-5.2045,-5.2045,-5.2119,-5.2121,0,0,0,0,0,0,0,0,0,0,0,-5.2027,-5.2029,-5.203,-5.2016,-5.2045,-5.2045,-5.2119,-5.2084,0,0,0,0,0,0,0,0,0,0,-5.205,-5.2082,-5.2028,-5.203,-5.2017,-5.2045,-5.2045,-5.2082,-5.2086,-5.2122,0,-5.2159,0,-5.2141,-5.2128,-5.2128,0,0,0,-5.2,-5.2079,-5.2067,-5.2031,-5.2017,-5.2045,-5.2028,-5.2084,-5.2089,-5.2128,-5.2159,-5.2161,-5.2142,-5.2129,-5.2129,-5.2388,-5.239,0,0,-5.1999,-5.2045,-5.2064,-5.2072,-5.2068,-5.2027,-5.2029,-5.2086,-5.2124,-5.216,-5.2162,-5.2144,-5.2129,-5.213,-5.2386,-5.2388,0,0,0,-5.2005,-5.2045,-5.203,-5.2069,-5.2072,-5.2028,-5.203,-5.2121,-5.2113,-5.2163,-5.2144,-5.213,-5.2131,-5.2384,-5.2387,-5.253,0,0,0,-5.2003,-5.2048,-5.2031,-5.2059,-5.2072,-5.2097,-5.2064,-5.2109,-5.2114,-5.2144,-5.213,-5.2132,-5.2381,-5.2385,-5.2521,-5.2591,0,0,0,-5.2019,-5.2049,-5.2061,-5.2062,-5.2076,-5.2094,-5.2089,-5.2109,-5.2104,-5.2128,-5.2133,-5.238,-5.2384,-5.2514,-5.2578,-5.2675,0,0,0,-5.2049,-5.2187,-5.2064,-5.2211,-5.2076,-5.2182,-5.2088,-5.2165,-5.2203,-5.213,-5.2382,-5.2386,-5.2511,-5.257,-5.2667,-5.2768,-5.2813,0,0,-5.2249,-5.2212,-5.2295,-5.2186,-5.2327,-5.2174,-5.2335,-5.2326,-5.2286,-5.2356,-5.2362,-5.2524,-5.2577,-5.2674,-5.3044,-5.3081,0,0,0,-5.2374,-5.2435,-5.2462,-5.2501,-5.2497,-5.2501,-5.2462,-5.2459,-5.2516,-5.2331,-5.2582,-5.2612,-5.2667,-5.2713,-5.2744,-5.279,-5.2409,-5.2408,-5.2408,-5.2726,-5.2667,-5.2801,-5.2747,-5.2786,-5.2745,-5.2772,-5.2761,-5.2689,-5.275,-5.2772,-5.3004,-5.3059,-5.3082,-5.313,-5.2817,-5.2817,-5.2818,-5.2818,-5.3016,-5.3094,-5.2997,-5.3092,-5.303,-5.311,-5.3077,-5.3024,-5.3091,-5.2982,-5.3027,-5.2917,-5.3124,-5.3163,-5.2828,-5.2827,-5.2825,-5.2824,-5.2824,-5.3243,-5.327,-5.3264,-5.3315,-5.3361,-5.33,-5.337,-5.3309,-5.3253,-5.3297,-5.3316,-5.3314,-5.3307,-5.331,-5.3311,-5.3311,-5.3312,-5.3313,-5.3313,-5.3482,-5.347,-5.3535,-5.3544,-5.3562,-5.3578,-5.3539,-5.3555,-5.3558,-5.3509,-5.3509,-5.3435,-5.3153,-5.3086,-5.3326,-5.3323,-5.3322,-5.3321,-5.332,-5.3804,-5.3722,-5.3823,-5.3842,-5.3848,-5.39,-5.3821,-5.386,-5.3865,-5.3902,-5.3817,-5.3617,-5.3576,-5.3551,-5.3495,-5.3827,-5.3827,-5.3827,-5.3827,-5.3998,-5.3971,-5.4062,-5.4096,-5.4121,-5.4061,-5.4181,-5.4153,-5.411,-5.411,-5.4053,-5.3972,-5.3949,-5.3922,-5.3889,-5.3836,-5.4247,-5.4247,-5.4247,-5.4195,-5.4167,-5.428,-5.4237,-5.4238,-5.4241,-5.4352,-5.4396,-5.4331,-5.4263,-5.411,-5.4092,-5.3961,-5.3921,-5.3854,-5.3804,-5.3705,0,0]},{"header":{"parameterUnit":"m.s-1","parameterCategory":1,"la1":30.2992,"la2":30.254,"lo1":-89.0895,"lo2":-89.0443,"dy":0.0025,"dx":0.0025,"nx":19,"ny":19,"refTime":"2026-04-20T09:00:00:Z","depth":0,"parameterNumber":3,"parameterNumberName":"V-component_of_WINDS"},"data":[0,0,0,-0.8682,-0.8684,-0.8774,-0.8774,-0.8889,-0.889,0,0,0,0,0,0,0,0,0,0,0,-0.8656,-0.8656,-0.8682,-0.8685,-0.8774,-0.8775,-0.8889,-0.889,0,0,0,0,0,0,0,0,0,0,0,-0.8655,-0.8656,-0.8657,-0.8685,-0.8774,-0.8775,-0.8889,-0.8821,0,0,0,0,0,0,0,0,0,0,-0.8734,-0.8709,-0.8656,-0.8657,-0.8685,-0.8774,-0.8775,-0.8818,-0.8826,-0.8848,0,-0.8868,0,-0.8881,-0.8898,-0.8898,0,0,0,-0.8685,-0.8703,-0.8727,-0.8657,-0.8686,-0.8774,-0.8734,-0.8822,-0.8831,-0.8858,-0.887,-0.8874,-0.8883,-0.8899,-0.8899,-0.9028,-0.9029,0,0,-0.868,-0.8672,-0.8721,-0.8733,-0.8718,-0.8731,-0.8737,-0.8827,-0.884,-0.887,-0.8877,-0.8885,-0.8899,-0.89,-0.9028,-0.9029,0,0,0,-0.8666,-0.8668,-0.869,-0.8728,-0.8744,-0.8734,-0.874,-0.8836,-0.8844,-0.8878,-0.8886,-0.89,-0.8901,-0.9027,-0.9028,-0.9049,0,0,0,-0.8663,-0.866,-0.8688,-0.8684,-0.8742,-0.8791,-0.8746,-0.8837,-0.8848,-0.8886,-0.89,-0.8903,-0.9027,-0.9028,-0.9048,-0.9062,0,0,0,-0.865,-0.8658,-0.8671,-0.8683,-0.8722,-0.879,-0.8803,-0.884,-0.8853,-0.8898,-0.8903,-0.9026,-0.9028,-0.9046,-0.9059,-0.9094,0,0,0,-0.8634,-0.8689,-0.8671,-0.8735,-0.8721,-0.8801,-0.8802,-0.8863,-0.8904,-0.8901,-0.9027,-0.9028,-0.9045,-0.9057,-0.9092,-0.9124,-0.9135,0,0,-0.8699,-0.8697,-0.8735,-0.8722,-0.8803,-0.8788,-0.8873,-0.8919,-0.8931,-0.8995,-0.8999,-0.9048,-0.9059,-0.9094,-0.9201,-0.921,0,0,0,-0.8753,-0.878,-0.8804,-0.8842,-0.8878,-0.891,-0.8944,-0.8961,-0.9015,-0.8962,-0.907,-0.9076,-0.9097,-0.9113,-0.9121,-0.914,-0.9034,-0.9034,-0.9034,-0.8835,-0.8846,-0.891,-0.8932,-0.8969,-0.9002,-0.9034,-0.9063,-0.9064,-0.9089,-0.9109,-0.9172,-0.919,-0.9196,-0.9216,-0.9124,-0.9124,-0.9125,-0.9125,-0.8932,-0.8974,-0.8972,-0.9034,-0.9045,-0.9098,-0.9131,-0.913,-0.9181,-0.9158,-0.9177,-0.9154,-0.9206,-0.9224,-0.9126,-0.9126,-0.9126,-0.9126,-0.9126,-0.8989,-0.9011,-0.9029,-0.9085,-0.9127,-0.9147,-0.9195,-0.9204,-0.9212,-0.9231,-0.9253,-0.9253,-0.9255,-0.924,-0.924,-0.9241,-0.9241,-0.9241,-0.9241,-0.9042,-0.9062,-0.9101,-0.9142,-0.9167,-0.9202,-0.9234,-0.926,-0.929,-0.9292,-0.9293,-0.9292,-0.9208,-0.9188,-0.9245,-0.9244,-0.9243,-0.9243,-0.9243,-0.9141,-0.9119,-0.918,-0.9206,-0.9254,-0.9295,-0.9304,-0.9354,-0.9376,-0.94,-0.9394,-0.933,-0.9329,-0.9323,-0.9306,-0.9391,-0.9391,-0.9391,-0.9391,-0.919,-0.9189,-0.9254,-0.9293,-0.9333,-0.9347,-0.9416,-0.9441,-0.9463,-0.9478,-0.9466,-0.9444,-0.9437,-0.944,-0.9431,-0.9416,-0.9527,-0.9527,-0.9527,-0.9252,-0.9255,-0.9313,-0.9334,-0.9371,-0.9404,-0.9469,-0.9515,-0.9536,-0.9533,-0.9489,-0.9484,-0.9448,-0.9435,-0.9434,-0.942,-0.9393,0,0]}]]